Location: Unspecified
(50.7693°N, 0.0000°E)
Time: 18:00:33
(UTC+00:00)

Transit 4A - Pass Details

Date: 01 July 2019
Orbit: 862 x 982 km, 66.8° (Epoch: 20 July)

Event Time Altitude Azimuth Distance (km) Brightness Sun altitude
Rises 10:28:43 0° 298° (WNW) 3,690 10.7 56.8°
Reaches altitude 10° 10:32:11 10° 316° (NW) 2,746 10.1 57.1°
Maximum altitude 10:36:36 19° 359° (N) 2,167 9.8 57.6°
Drops below altitude 10° 10:41:00 10° 43° (NE) 2,733 10.4 58.0°
Sets 10:44:26 0° 61° (ENE) 3,667 11.1 58.3°
